Overview Statistics Trail Chart Weather Telemetry Raw packets
 

This is the latest recevied weather packets stored in our database for station/object N6GPM. If no packets are shown the sender has not sent any weather packets the latest 10 day(s).

<< 4 5 6 7 8 9 10 >>
Time Temp. Humidity Pressure Rain* Wind** Luminosity Snow
1788645596 32.78° C 19% 1017.3 hPa 0 mm - 873 W/m² -
1788645292 33.89° C 19% 1017.3 hPa 0 mm - 837 W/m² -
1788644989 33.33° C 19% 1017 hPa 0 mm - 865 W/m² -
1788644684 32.78° C 20% 1017.3 hPa 0 mm - 907 W/m² -
1788644384 33.33° C 20% 1017.4 hPa 0 mm - 477 W/m² -
1788644080 33.33° C 19% 1017.4 hPa 0 mm - 994 W/m² -
1788643775 33.33° C 18% 1017.6 hPa 0 mm - 850 W/m² -
1788643470 33.33° C 19% 1017.5 hPa 0 mm - 976 W/m² -
1788643169 33.89° C 18% 1017.6 hPa 0 mm - 907 W/m² -
1788642865 33.33° C 18% 1017.6 hPa 0 mm - 904 W/m² -
1788642561 32.78° C 18% 1017.7 hPa 0 mm - 915 W/m² -
1788642255 33.33° C 18% 1017.6 hPa 0 mm - 932 W/m² -
1788641955 33.33° C 18% 1017.6 hPa 0 mm - 978 W/m² -
1788641649 32.78° C 17% 1017.5 hPa 0 mm - 937 W/m² -
1788641348 32.78° C 18% 1017.6 hPa 0 mm - 938 W/m² -
1788641044 32.22° C 18% 1017.7 hPa 0 mm - 937 W/m² -
1788640737 32.22° C 17% 1017.9 hPa 0 mm - 943 W/m² -
1788640433 32.22° C 17% 1017.9 hPa 0 mm - 956 W/m² -
1788640128 32.78° C 17% 1017.9 hPa 0 mm - 990 W/m² -
1788639823 32.78° C 17% 1017.9 hPa 0 mm - 1017 W/m² -
1788639518 32.78° C 17% 1018.2 hPa 0 mm - 997 W/m² -
1788639214 31.67° C 18% 1018.2 hPa 0 mm - 1042 W/m² -
1788638941 31.67° C 18% 1018 hPa 0 mm - 836 W/m² -
1788638605 31.11° C 18% 1018.2 hPa 0 mm - 1022 W/m² -
1788638302 31.67° C 17% 1018.5 hPa 0 mm - 987 W/m² -

* Rain latest hour (hover to see other rain measurements)
** Current wind speed in m/s (hover to see current wind gust speed)